Location: Kapla
(46.2483°N, 15.0094°E)
Time: 21:41:36
(UTC+00:00)

Cosmos 1666 Rocket - Pass Details

Date: 03 March 2021
Orbit: 605 x 632 km, 82.5° (Epoch: 21 April)

Event Time Altitude Azimuth Distance (km) Brightness Sun altitude
Rises 17:19:58 0° 184° (S) 2,857 7.1 -6.1°
Reaches altitude 10° 17:22:11 10° 183° (S) 1,955 6.2 -6.5°
Maximum altitude 17:26:29 79° 98° (E) 625 3.5 -7.3°
Drops below altitude 10° 17:30:50 10° 11° (NNE) 1,964 6.0 -8.0°
Sets 17:33:04 0° 11° (N) 2,872 6.9 -8.4°
